Flag for Japan Weather past 2 weeks in Kawasaki, Japan

Now
73 °F

Light rain. Partly sunny.


Feels Like: 73 °F
Forecast: 71 / 79 °F
Wind: 16 mph from Northeast

Location: Tokyo International Airport

Current Time: Aug 28, 2015 at 2:52:24 PM

Latest Report: Aug 28, 2015 at 2:30 PM


Visibility: N/A

Pressure: 29.86 "Hg

Humidity: 83%

Dew point: 68 °F

Location of KawasakiLocation

Historic Weather in Kawasaki — Graph

°F

Kawasaki temperature yesterday

Maximum temperature yesterday: 79 °F (at 10:00 AM)
Minimum temperature yesterday: 72 °F (at 12:00 AM)
Average temperature yesterday: 75 °F

Past Weeks' High & Low Weather Summary

 TemperatureHumidityPressure
High91 °F (Aug 15, 2:30 PM)100% (Aug 17, 3:03 PM)29.92 "Hg (Aug 17, 3:03 PM)
Low66 °F (Aug 26, 12:00 AM)55% (Aug 15, 1:30 PM)29.50 "Hg (Aug 22, 2:30 PM)
Average79 °F82%29.74 "Hg
* Reported Aug 13 1:00 PM — Aug 28 1:30 PM, Kawasaki, Weather by CustomWeather, © 2015

Note: Actual official high and low records may vary slightly from our data, if they occured in-between our weather recording intervals... More about our weather records

Advertising

Kawasaki weather history for previous 24 hours

 ConditionsComfort  
Time TempWeatherWind HumidityBarometerVisibility
1:30 PM
Fri, Aug 28
72 °FLight rain. Partly sunny.16 mph88%29.86 "HgN/A
1:00 PM72 °FLight rain. Partly sunny.16 mph88%29.86 "HgN/A
12:30 PM72 °FLight rain. Partly sunny.17 mph88%29.86 "HgN/A
12:00 PM72 °FLight rain. Partly sunny.14 mph88%29.89 "HgN/A
11:30 AM72 °FLight rain. Fog.15 mph88%29.89 "Hg5 mi
11:00 AM73 °FLight rain. Fog.15 mph78%29.89 "HgN/A
10:30 AM73 °FLight rain. Partly sunny.15 mph78%29.89 "Hg6 mi
10:00 AM73 °FLight rain. Partly sunny.13 mph78%29.89 "HgN/A
9:30 AM73 °FLight rain. Partly sunny.14 mph78%29.89 "HgN/A
9:00 AM72 °FPartly sunny.14 mph83%29.89 "HgN/A
8:30 AM72 °FBroken clouds.13 mph83%29.89 "HgN/A
8:00 AM72 °FScattered showers. Broken clouds.12 mph88%29.89 "HgN/A
7:30 AM72 °FLight rain. Broken clouds.12 mph83%29.89 "HgN/A
7:00 AM70 °FScattered showers. Partly sunny.14 mph88%29.89 "HgN/A
6:30 AM72 °FScattered showers. Partly sunny.14 mph83%29.86 "HgN/A
6:00 AM72 °FPartly sunny.14 mph83%29.86 "HgN/A
5:30 AM72 °FScattered showers. Partly sunny.14 mph83%29.86 "HgN/A
5:00 AM72 °FPassing clouds.14 mph88%29.86 "HgN/A
4:30 AM72 °FPassing clouds.14 mph83%29.86 "HgN/A
4:00 AM72 °FPassing clouds.15 mph83%29.83 "HgN/A
3:30 AM72 °FPassing clouds.14 mph88%29.83 "HgN/A
3:00 AM72 °FLight rain. Passing clouds.14 mph88%29.83 "HgN/A
2:30 AM72 °FLight rain. Passing clouds.14 mph88%29.83 "HgN/A
2:00 AM72 °FLight rain. Passing clouds.14 mph88%29.83 "HgN/A
1:30 AM72 °FLight rain. Passing clouds.15 mph88%29.83 "Hg6 mi
1:00 AM73 °FLight rain. Passing clouds.13 mph83%29.83 "HgN/A
12:30 AM73 °FLight rain. Passing clouds.16 mph83%29.83 "HgN/A
12:00 AM73 °FPassing clouds.15 mph83%29.83 "HgN/A
11:30 PM
Thu, Aug 27
73 °FPassing clouds.16 mph83%29.83 "HgN/A
11:00 PM75 °FPassing clouds.13 mph78%29.83 "HgN/A
10:30 PM75 °FPassing clouds.14 mph78%29.83 "HgN/A
10:00 PM75 °FPassing clouds.15 mph78%29.83 "HgN/A
9:30 PM75 °FPassing clouds.15 mph78%29.83 "HgN/A
9:00 PM75 °FPassing clouds.14 mph78%29.83 "HgN/A
8:30 PM75 °FPassing clouds.15 mph78%29.83 "HgN/A
8:00 PM75 °FPassing clouds.14 mph78%29.83 "HgN/A
7:30 PM75 °FPassing clouds.15 mph83%29.83 "HgN/A
6:30 PM75 °FPartly cloudy.15 mph83%29.80 "HgN/A
6:00 PM75 °FLight rain. Partly sunny.14 mph83%29.80 "HgN/A
5:30 PM75 °FBroken clouds.13 mph83%29.80 "HgN/A
5:00 PM77 °FPartly sunny.13 mph79%29.77 "HgN/A
4:30 PM77 °FPartly sunny.16 mph83%29.77 "HgN/A
4:00 PM77 °FPartly sunny.15 mph83%29.77 "HgN/A
3:30 PM77 °FPartly sunny.14 mph83%29.77 "HgN/A
3:00 PM77 °FPartly sunny.12 mph83%29.77 "HgN/A
2:30 PM77 °FPartly sunny.10 mph83%29.77 "HgN/A
2:00 PM77 °FPartly sunny.13 mph83%29.77 "HgN/A
Weather by CustomWeather, © 2015

See weather overviewHow to use our weather pages